[[{"header":{"parameterUnit":"m.s-1","parameterCategory":1,"la1":30.2991,"la2":30.254,"lo1":-89.0895,"lo2":-89.0444,"dy":0.0017,"dx":0.0017,"nx":28,"ny":28,"refTime":"2025-07-28T21:00:00:Z","depth":0,"parameterNumber":2,"parameterNumberName":"U-component_of_WINDS"},"data":[0,0,0,0,0,0,0,0,0,0,0,0,0,0,0,0,0,0,0,0,0,0,0,0,0,0,0,0,0,0,0,0,0,0,0,0,0,0,0,0,0,0,0,0,0,0,0,0,0,0,0,0,0,0,0,0,0,0,-0.2315,-0.2313,0,-0.2087,-0.2084,-0.2082,-0.1983,-0.1983,-0.1983,-0.1984,-0.1741,-0.1734,-0.1727,0,0,0,0,0,0,0,0,0,0,0,0,0,-0.2658,-0.2653,-0.2316,-0.2313,-0.231,-0.2087,-0.2084,-0.2081,-0.1983,-0.1983,-0.1984,-0.1984,-0.1743,-0.1735,-0.1726,0,0,0,0,0,0,0,0,0,0,0,0,0,-0.2478,-0.2651,-0.2316,-0.2234,-0.2225,-0.2088,-0.2084,-0.208,-0.1983,-0.1983,-0.1984,-0.1984,-0.1745,-0.1735,-0.1725,-0.165,0,0,-0.1694,-0.1689,0,0,0,0,0,0,0,0,-0.2488,-0.2465,-0.2249,-0.224,-0.2229,-0.2064,-0.2116,-0.1936,-0.1982,-0.2074,-0.1984,-0.1985,-0.1847,-0.1829,-0.1784,-0.1639,-0.1628,-0.1693,-0.1687,-0.1682,-0.1679,0,0,0,0,0,0,0,-0.2501,-0.2474,-0.2225,-0.2246,-0.2234,-0.2206,-0.2181,-0.2081,-0.196,-0.2066,-0.2059,-0.2033,-0.1841,-0.1794,-0.1778,-0.1625,-0.1693,-0.1684,-0.1678,-0.1674,-0.1405,-0.1404,0,0,0,0,0,0,-0.2528,-0.2485,-0.2232,-0.2218,-0.2363,-0.22,-0.2171,-0.2116,-0.1961,-0.1938,-0.2033,-0.203,-0.1811,-0.179,-0.1769,-0.167,-0.1682,-0.1673,-0.1667,-0.1406,-0.1405,-0.1404,0,0,0,0,0,0,-0.2536,-0.2506,-0.2241,-0.2349,-0.2314,-0.2193,-0.2132,-0.2111,-0.2064,-0.1936,-0.1913,-0.2008,-0.1811,-0.1783,-0.1681,-0.166,-0.1668,-0.1659,-0.1407,-0.1406,-0.1405,-0.1472,0,0,0,0,0,0,-0.2546,-0.251,-0.2482,-0.235,-0.2308,-0.216,-0.213,-0.2106,-0.2048,-0.2041,-0.1906,-0.1884,-0.1809,-0.1697,-0.1671,-0.1646,-0.1651,-0.1409,-0.1407,-0.1405,-0.1471,-0.1473,-0.1475,0,0,0,0,0,-0.2559,-0.2508,-0.2481,-0.2451,-0.2272,-0.2159,-0.2135,-0.2053,-0.2046,-0.2016,-0.1934,-0.1888,-0.1667,-0.1687,-0.1657,-0.1629,-0.141,-0.1407,-0.1405,-0.1471,-0.1473,-0.1475,0,0,0,0,0,0,-0.2637,-0.2489,-0.2457,-0.2363,-0.2275,-0.2143,-0.2102,-0.2058,-0.1968,-0.1965,-0.1864,-0.1834,-0.1741,-0.1674,-0.1699,-0.1548,-0.1534,-0.1526,-0.1594,-0.1596,-0.1597,-0.1615,-0.1642,0,0,0,0,0,-0.2644,-0.2568,-0.2442,-0.2371,-0.2328,-0.2223,-0.2171,-0.2116,-0.2019,-0.198,-0.189,-0.1796,-0.1704,-0.1646,-0.1556,-0.1462,-0.143,-0.1428,-0.143,-0.1432,-0.1425,-0.137,-0.1367,-0.1397,-0.1397,-0.1397,0,0,-0.2656,-0.2566,-0.2524,-0.2384,-0.2309,-0.223,-0.2192,-0.211,-0.2049,-0.1966,-0.1865,-0.1796,-0.1683,-0.1586,-0.1538,-0.1527,-0.141,-0.1429,-0.1432,-0.1423,-0.1367,-0.1364,-0.1362,-0.1395,-0.1396,-0.1396,0,0,-0.2638,-0.2564,-0.2496,-0.2423,-0.2311,-0.2242,-0.2226,-0.21,-0.2052,-0.195,-0.1886,-0.1811,-0.1657,-0.158,-0.152,-0.1475,-0.1428,-0.1447,-0.1456,-0.1404,-0.1401,-0.1399,-0.1381,-0.1376,-0.1442,-0.1442,-0.1442,0,-0.2667,-0.2548,-0.2466,-0.2388,-0.2328,-0.2253,-0.2183,-0.2114,-0.1977,-0.1936,-0.1928,-0.1733,-0.1652,-0.1534,-0.1524,-0.1478,-0.1455,-0.1462,-0.1409,-0.1405,-0.1402,-0.1384,-0.1378,-0.1445,-0.1444,-0.1444,-0.1444,0,-0.2588,-0.2507,-0.2465,-0.2339,-0.2274,-0.22,-0.2105,-0.2048,-0.1999,-0.193,-0.1826,-0.1727,-0.1615,-0.1583,-0.1532,-0.1457,-0.1455,-0.1429,-0.1413,-0.1403,-0.1385,-0.1377,-0.1449,-0.1448,-0.1447,-0.1446,0,0,-0.2612,-0.2443,-0.2429,-0.2371,-0.2243,-0.2176,-0.2099,-0.1992,-0.1945,-0.1854,-0.1784,-0.1656,-0.1632,-0.1565,-0.1505,-0.1459,-0.1429,-0.1438,-0.1434,-0.1439,-0.1338,-0.1358,-0.1352,-0.1398,-0.1397,-0.1395,-0.1347,0,-0.2576,-0.2436,-0.2361,-0.2252,-0.2175,-0.2103,-0.2035,-0.1948,-0.1881,-0.1804,-0.1729,-0.164,-0.1615,-0.1574,-0.1525,-0.1443,-0.1407,-0.1445,-0.133,-0.1327,-0.1359,-0.1342,-0.1362,-0.1322,-0.134,-0.1339,-0.1338,0,-0.2515,-0.2428,-0.2313,-0.2194,-0.2159,-0.2099,-0.1996,-0.1924,-0.1822,-0.1777,-0.1703,-0.1645,-0.1557,-0.155,-0.1427,-0.1455,-0.1403,-0.1356,-0.1352,-0.1337,-0.1331,-0.1325,-0.1307,-0.1301,-0.1326,-0.1327,-0.1327,0,-0.2543,-0.2396,-0.2309,-0.2261,-0.2121,-0.208,-0.2019,-0.1919,-0.186,-0.1769,-0.1729,-0.1628,-0.1572,-0.1493,-0.1408,-0.1411,-0.1293,-0.1279,-0.1251,-0.1253,-0.1227,-0.123,-0.12,-0.1197,-0.1197,-0.1197,-0.1197,0,-0.251,-0.2441,-0.2319,-0.2265,-0.2186,-0.2099,-0.2022,-0.1955,-0.1867,-0.1796,-0.1727,-0.1662,-0.1554,-0.1475,-0.1407,-0.1315,-0.129,-0.1249,-0.1232,-0.1254,-0.126,-0.1218,-0.1218,-0.1196,-0.1196,-0.1196,-0.1197,0,-0.2527,-0.2443,-0.2342,-0.2219,-0.2186,-0.2133,-0.2026,-0.1969,-0.19,-0.1811,-0.1785,-0.1676,-0.1579,-0.1487,-0.1356,-0.1311,-0.1218,-0.1196,-0.1253,-0.1243,-0.122,-0.1223,-0.116,-0.1147,-0.1156,-0.1156,-0.1156,0,-0.2511,-0.2457,-0.2329,-0.2279,-0.222,-0.2139,-0.208,-0.1991,-0.1931,-0.1813,-0.177,-0.1669,-0.1583,-0.1431,-0.1337,-0.1237,-0.1211,-0.1196,-0.1195,-0.122,-0.1209,-0.1213,-0.1206,-0.1198,-0.1198,-0.1198,-0.1198,0,-0.2491,-0.2452,-0.2371,-0.2275,-0.2207,-0.2126,-0.2042,-0.2004,-0.1899,-0.1835,-0.1737,-0.1671,-0.1539,-0.1438,-0.1328,-0.1261,-0.1211,-0.12,-0.1188,-0.121,-0.1245,-0.1224,-0.1257,-0.1201,-0.1201,-0.1201,-0.1201,-0.12,-0.2489,-0.2439,-0.2341,-0.2252,-0.2181,-0.2105,-0.2046,-0.1971,-0.1889,-0.1777,-0.1729,-0.1629,-0.1528,-0.1375,-0.131,-0.1228,-0.1217,-0.12,-0.1195,-0.1191,-0.1196,-0.126,-0.1208,-0.1208,-0.1207,-0.1207,-0.1207,0,-0.2465,-0.24,-0.2319,-0.2206,-0.2136,-0.21,-0.2005,-0.1948,-0.1863,-0.1774,-0.1692,-0.1579,-0.1481,-0.1382,-0.1278,-0.1232,-0.1206,-0.1207,-0.1209,-0.1194,-0.1213,-0.1233,-0.123,-0.123,-0.123,-0.123,-0.123,-0.123,-0.2444,-0.2356,-0.2306,-0.2182,-0.2115,-0.202,-0.1969,-0.1897,-0.1827,-0.1705,-0.1624,-0.1561,-0.1467,-0.1356,-0.1264,-0.1237,-0.1201,-0.1209,-0.1175,-0.1194,-0.1193,-0.1192,-0.121,-0.1202,-0.1202,-0.1163,-0.1162,-0.1162]},{"header":{"parameterUnit":"m.s-1","parameterCategory":1,"la1":30.2991,"la2":30.254,"lo1":-89.0895,"lo2":-89.0444,"dy":0.0017,"dx":0.0017,"nx":28,"ny":28,"refTime":"2025-07-28T21:00:00:Z","depth":0,"parameterNumber":3,"parameterNumberName":"V-component_of_WINDS"},"data":[0,0,0,0,0,0,0,0,0,0,0,0,0,0,0,0,0,0,0,0,0,0,0,0,0,0,0,0,0,0,0,0,0,0,0,0,0,0,0,0,0,0,0,0,0,0,0,0,0,0,0,0,0,0,0,0,0,0,-1.3579,-1.358,0,-1.37,-1.3701,-1.3703,-1.3779,-1.3779,-1.3779,-1.378,-1.3902,-1.3905,-1.3908,0,0,0,0,0,0,0,0,0,0,0,0,0,-1.3408,-1.3411,-1.3579,-1.358,-1.3582,-1.37,-1.3701,-1.3703,-1.3779,-1.3779,-1.378,-1.378,-1.3901,-1.3905,-1.3908,0,0,0,0,0,0,0,0,0,0,0,0,0,-1.3501,-1.3412,-1.3578,-1.3634,-1.364,-1.3699,-1.3701,-1.3704,-1.3778,-1.3779,-1.378,-1.378,-1.39,-1.3904,-1.3909,-1.3922,0,0,-1.3922,-1.3924,0,0,0,0,0,0,0,0,-1.3496,-1.3507,-1.3624,-1.363,-1.3637,-1.3725,-1.3686,-1.3777,-1.3778,-1.3726,-1.378,-1.3781,-1.3843,-1.3852,-1.3873,-1.3928,-1.3933,-1.3922,-1.3925,-1.3927,-1.3928,0,0,0,0,0,0,0,-1.3489,-1.3502,-1.3627,-1.3626,-1.3633,-1.3651,-1.3665,-1.3704,-1.3779,-1.373,-1.3736,-1.375,-1.3846,-1.3869,-1.3876,-1.3935,-1.3922,-1.3926,-1.3928,-1.393,-1.4005,-1.4005,0,0,0,0,0,0,-1.3474,-1.3497,-1.3623,-1.363,-1.3567,-1.3653,-1.3669,-1.3696,-1.3779,-1.3792,-1.3749,-1.3753,-1.3861,-1.3871,-1.3881,-1.3902,-1.3927,-1.3931,-1.3933,-1.4006,-1.4005,-1.4005,0,0,0,0,0,0,-1.3471,-1.3485,-1.3618,-1.3565,-1.3583,-1.3656,-1.3685,-1.3698,-1.3721,-1.3793,-1.3806,-1.3758,-1.3862,-1.3875,-1.3911,-1.3908,-1.3933,-1.3936,-1.4007,-1.4006,-1.4005,-1.3945,0,0,0,0,0,0,-1.3465,-1.3483,-1.349,-1.3565,-1.3586,-1.3647,-1.3685,-1.37,-1.3728,-1.3734,-1.3805,-1.3818,-1.3863,-1.3904,-1.3915,-1.3914,-1.394,-1.4007,-1.4006,-1.4005,-1.3947,-1.3942,-1.3937,0,0,0,0,0,-1.3459,-1.3469,-1.349,-1.3505,-1.3597,-1.3647,-1.3659,-1.3712,-1.3727,-1.3735,-1.378,-1.3815,-1.3905,-1.3907,-1.3921,-1.392,-1.4008,-1.4006,-1.4005,-1.395,-1.3943,-1.3937,0,0,0,0,0,0,-1.3392,-1.348,-1.3505,-1.3539,-1.3585,-1.366,-1.3671,-1.3703,-1.3746,-1.375,-1.3813,-1.3828,-1.3858,-1.3892,-1.3893,-1.3937,-1.396,-1.3962,-1.3914,-1.3908,-1.3903,-1.3895,-1.3943,0,0,0,0,0,-1.3381,-1.3416,-1.349,-1.3513,-1.3534,-1.3598,-1.3622,-1.3658,-1.3709,-1.3728,-1.3777,-1.3823,-1.3862,-1.3887,-1.3926,-1.3951,-1.3968,-1.3957,-1.3952,-1.3947,-1.3949,-1.3963,-1.3959,-1.4,-1.4,-1.4,0,0,-1.336,-1.3412,-1.343,-1.3501,-1.3541,-1.3574,-1.3614,-1.3648,-1.3673,-1.3733,-1.3771,-1.3807,-1.3863,-1.3894,-1.391,-1.3924,-1.394,-1.3946,-1.3942,-1.3945,-1.3961,-1.3958,-1.3954,-1.3999,-1.4,-1.4,0,0,-1.3338,-1.338,-1.3404,-1.3443,-1.3502,-1.3544,-1.3549,-1.3618,-1.3645,-1.3683,-1.3729,-1.3758,-1.3824,-1.3861,-1.3889,-1.3876,-1.391,-1.3887,-1.3862,-1.3875,-1.3872,-1.3869,-1.3865,-1.3863,-1.3887,-1.3887,-1.3887,0,-1.3304,-1.3357,-1.3412,-1.3443,-1.3472,-1.3527,-1.355,-1.3584,-1.3653,-1.3672,-1.3686,-1.3768,-1.3809,-1.3849,-1.3845,-1.3866,-1.3873,-1.3881,-1.3868,-1.3866,-1.3864,-1.3861,-1.3859,-1.3884,-1.3885,-1.3885,-1.3885,0,-1.3311,-1.3347,-1.3358,-1.3424,-1.3454,-1.348,-1.3538,-1.3561,-1.3593,-1.3633,-1.367,-1.3721,-1.3771,-1.3782,-1.3815,-1.3826,-1.3833,-1.3856,-1.3882,-1.3856,-1.3854,-1.3853,-1.388,-1.3881,-1.3882,-1.3883,0,0,-1.3255,-1.3348,-1.3351,-1.3381,-1.3449,-1.3477,-1.3504,-1.3553,-1.3572,-1.3616,-1.3641,-1.3693,-1.3715,-1.3746,-1.3782,-1.3793,-1.378,-1.3816,-1.3818,-1.3808,-1.3794,-1.3777,-1.3775,-1.3801,-1.3801,-1.3801,-1.379,0,-1.3244,-1.3299,-1.3347,-1.3383,-1.3416,-1.3466,-1.349,-1.3533,-1.3569,-1.3601,-1.3641,-1.3677,-1.3703,-1.3722,-1.3736,-1.3779,-1.3778,-1.378,-1.3824,-1.3825,-1.3811,-1.3774,-1.3757,-1.3744,-1.3789,-1.3789,-1.3789,0,-1.324,-1.3282,-1.3321,-1.3384,-1.3399,-1.342,-1.3468,-1.3498,-1.3547,-1.3572,-1.3605,-1.3642,-1.3672,-1.3692,-1.3733,-1.3733,-1.3754,-1.3777,-1.3777,-1.3786,-1.3807,-1.3782,-1.3741,-1.374,-1.3788,-1.3788,-1.3788,0,-1.3195,-1.3261,-1.3293,-1.3317,-1.339,-1.3404,-1.3435,-1.3484,-1.351,-1.355,-1.3567,-1.361,-1.3634,-1.3666,-1.3713,-1.3724,-1.3749,-1.3774,-1.3771,-1.377,-1.3777,-1.3776,-1.374,-1.3787,-1.3787,-1.3787,-1.3787,0,-1.318,-1.3202,-1.3274,-1.3294,-1.3319,-1.3373,-1.3396,-1.3431,-1.3474,-1.3501,-1.3545,-1.3569,-1.3629,-1.3659,-1.3696,-1.3724,-1.3734,-1.3755,-1.3765,-1.3753,-1.375,-1.3769,-1.3771,-1.3786,-1.3786,-1.3786,-1.3787,0,-1.3136,-1.3185,-1.3223,-1.3289,-1.3305,-1.3321,-1.3377,-1.3397,-1.3434,-1.3466,-1.3477,-1.3535,-1.3573,-1.3622,-1.3675,-1.37,-1.3724,-1.3738,-1.3708,-1.3714,-1.3709,-1.3709,-1.3685,-1.3685,-1.3729,-1.3729,-1.3728,0,-1.3124,-1.3142,-1.3208,-1.3229,-1.3259,-1.3292,-1.3318,-1.3369,-1.3394,-1.3449,-1.3462,-1.3503,-1.3539,-1.3596,-1.3642,-1.3682,-1.3699,-1.3687,-1.3705,-1.3691,-1.37,-1.3699,-1.37,-1.3684,-1.3683,-1.3682,-1.3682,0,-1.3097,-1.3119,-1.3156,-1.3199,-1.3228,-1.3265,-1.3304,-1.3318,-1.3377,-1.3402,-1.3441,-1.3468,-1.3521,-1.3561,-1.3606,-1.3637,-1.3669,-1.3675,-1.3677,-1.3665,-1.3647,-1.3658,-1.3697,-1.3676,-1.3677,-1.3677,-1.3678,-1.3678,-1.307,-1.3087,-1.3136,-1.3174,-1.3208,-1.3242,-1.3264,-1.3303,-1.3336,-1.3384,-1.3411,-1.3449,-1.3494,-1.3558,-1.3587,-1.3616,-1.3629,-1.3631,-1.3632,-1.3632,-1.3628,-1.364,-1.3624,-1.3625,-1.3625,-1.3625,-1.3625,0,-1.3046,-1.3079,-1.3113,-1.3165,-1.3194,-1.322,-1.3263,-1.3285,-1.3318,-1.3357,-1.3391,-1.3434,-1.3471,-1.3519,-1.356,-1.3574,-1.3589,-1.3583,-1.3583,-1.359,-1.3614,-1.3609,-1.3569,-1.3569,-1.3569,-1.3569,-1.3569,-1.3569,-1.3037,-1.3068,-1.3096,-1.3143,-1.3176,-1.3213,-1.3236,-1.3267,-1.3298,-1.3345,-1.3376,-1.3407,-1.3449,-1.3492,-1.3527,-1.354,-1.3554,-1.3543,-1.356,-1.3583,-1.3588,-1.3593,-1.3588,-1.3545,-1.3545,-1.3533,-1.3533,-1.3533]}]]